Tracking 32938 objects as of 13-Jan-2026
HD Live streaming from Space Station
objects crossing your sky now

STARLINK 1063

Track STARLINK 1063 now!
10-day predictions
STARLINK 1063 is classified as:


NORAD ID: 44768
Int'l Code: 2019-074BH
Perigee: 553.6 km
Apogee: 555.2 km
Inclination: 53.1 °
Period: 95.6 minutes
Semi major axis: 6925 km
RCS: Unknown
Launch date: November 11, 2019
Source: United States (US)
Launch site: AIR FORCE EASTERN TEST RANGE (AFETR)
Your satellite tracking list
Your tracking list is empty




NASA's NSSDC Master Catalog

Two Line Element Set (TLE):
1 44768U 19074BH  26013.02514581 -.00003581  00000-0 -22172-3 0  9994
2 44768  53.0538 116.5098 0001125  86.9969 273.1149 15.06385814339813
Source of the keplerian elements: AFSPC